Location: Krakow
(50.0830°N, 19.9170°E)
Time: 09:46:32
(UTC+02:00)

S-56A Canister/Altair - Pass Details

Date: 02 February 2023
Orbit: 639 x 2493 km, 38.9° (Epoch: 30 March)

Event Time Altitude Azimuth Distance (km) Brightness Sun altitude
Rises 15:23:14 0° 262° (W) 3,541 12.0 8.9°
Reaches altitude 10° 15:25:56 10° 249° (WSW) 2,811 12.2 8.5°
Maximum altitude 15:31:22 25° 196° (SSW) 2,321 11.0 7.9°
Drops below altitude 10° 15:38:39 10° 147° (SSE) 3,868 11.2 6.9°
Sets 15:43:10 0° 136° (SE) 5,199 11.7 6.4°
